This is the latest recevied weather packets stored in our database for station/object NK7E-2. If no packets are shown the sender has not sent any weather packets the latest 10 day(s).
| Time | Temp. | Humidity | Pressure | Rain* | Wind** | Luminosity | Snow |
|---|---|---|---|---|---|---|---|
| 1787933417 | 32.22° C | 34% | 1031.4 hPa | 0 mm | - | - | - |
| 1787932816 | 31.67° C | 35% | 1031.5 hPa | 0 mm | - | - | - |
| 1787932216 | 31.67° C | 36% | 1031.5 hPa | 0 mm | - | - | - |
| 1787931616 | 31.11° C | 36% | 1031.1 hPa | 0 mm | - | - | - |
| 1787931022 | 31.11° C | 37% | 1031.3 hPa | 0 mm | - | - | - |
| 1787930417 | 31.11° C | 37% | 1031.3 hPa | 0 mm | - | - | - |
| 1787929816 | 30.56° C | 36% | 1031 hPa | 0 mm | - | - | - |
| 1787929216 | 30.56° C | 36% | 1031.1 hPa | 0 mm | - | - | - |
| 1787928616 | 30° C | 37% | 1031 hPa | 0 mm | - | - | - |
| 1787928016 | 30° C | 36% | 1030.5 hPa | 0 mm | - | - | - |
| 1787927416 | 28.89° C | 37% | 1030.2 hPa | 0 mm | - | - | - |
| 1787926816 | 28.89° C | 38% | 1030.3 hPa | 0 mm | - | - | - |
| 1787926216 | 28.33° C | 38% | 1030.2 hPa | 0 mm | - | - | - |
| 1787925616 | 28.89° C | 38% | 1030.4 hPa | 0 mm | - | - | - |
| 1787925016 | 28.33° C | 38% | 1030.2 hPa | 0 mm | - | - | - |
| 1787924416 | 28.33° C | 38% | 1030.8 hPa | 0 mm | - | - | - |
| 1787923816 | 27.78° C | 41% | 1030.6 hPa | 0 mm | - | - | - |
| 1787923216 | 27.22° C | 41% | 1030.2 hPa | 0 mm | - | - | - |
| 1787922616 | 27.22° C | 41% | 1030.4 hPa | 0 mm | - | - | - |
| 1787922016 | 27.22° C | 41% | 1030.3 hPa | 0 mm | - | - | - |
| 1787921416 | 27.78° C | 40% | 1030.3 hPa | 0 mm | - | - | - |
| 1787920816 | 27.78° C | 37% | 1030.1 hPa | 0 mm | - | - | - |
| 1787920216 | 28.33° C | 36% | 1030.4 hPa | 0 mm | - | - | - |
| 1787919617 | 28.89° C | 36% | 1030.3 hPa | 0 mm | - | - | - |
| 1787919016 | 29.44° C | 34% | 1030.4 hPa | 0 mm | - | - | - |
* Rain latest hour (hover to see other rain measurements)
** Current wind speed in m/s (hover to see current wind gust speed)